GW5027 Weather Reports


time (UTC)temp
C
wind
direction
speed
KPH
gust
KPH
rain 1hr
cm
rain 24hr
cm
rain mn
cm
humidity
%
barometer
mb
20260504000600 15 257 4.8 11.3 0.00 0.15 0.00 86 1012.7
20260504000501 15 229 4.8 11.3 0.00 0.15 0.00 86 1017.2
20260504000105 15 306 3.2 9.7 0.00 0.15 0.00 86 1012.7
20260504000006 15 282 4.8 16.1 0.00 0.15 0.00 85 1017.2
20260504000002 15 282 3.2 16.1 0.00 0.15 0.00 85 1012.7
20260503235604 15 224 3.2 17.7 0.00 0.15 0.00 85 1012.8
20260503235501 15 266 8.0 17.7 0.00 0.15 0.00 85 1017.3
20260503235103 15 253 9.7 17.7 0.00 0.15 0.00 85 1012.8
20260503235003 15 222 9.7 17.7 0.00 0.15 0.00 85 1017.4
20260503234600 15 249 6.4 19.3 0.00 0.15 0.00 85 1012.8
20260503234501 15 289 8.0 19.3 0.00 0.15 0.00 86 1017.3
20260503234100 15 285 6.4 19.3 0.00 0.15 0.00 85 1012.6
20260503233601 15 305 6.4 24.1 0.00 0.15 0.00 85 1012.5
20260503233101 15 253 8.0 24.1 0.00 0.15 0.00 84 1012.8
20260503233006 15 241 11.3 24.1 0.00 0.15 0.00 84 1017.3
20260503232600 15 288 11.3 24.1 0.00 0.15 0.00 85 1012.8
20260503232501 15 248 11.3 24.1 0.00 0.15 0.00 85 1017.4
20260503232101 15 300 8.0 25.7 0.00 0.15 0.00 86 1012.7
20260503232001 15 302 11.3 25.7 0.00 0.15 0.00 86 1017.2
20260503231602 15 265 11.3 32.2 0.00 0.15 0.00 87 1012.8
20260503231501 15 274 12.9 32.2 0.00 0.15 0.00 88 1017.3
20260503231104 15 217 12.9 32.2 0.00 0.15 0.00 88 1012.8
20260503231003 15 262 11.3 32.2 0.00 0.15 0.00 88 1017.4
20260503230601 15 236 8.0 19.3 0.00 0.15 0.00 89 1012.8
20260503230112 15 273 8.0 16.1 0.00 0.15 0.00 90 1012.6
20260503230005 15 259 4.8 14.5 0.00 0.15 0.00 90 1017.1
20260503230003 15 259 6.4 14.5 0.00 0.15 0.00 90 1012.6
20260503225600 15 258 4.8 12.9 0.00 0.15 0.00 90 1012.6
20260503225501 15 234 3.2 12.9 0.00 0.15 0.00 90 1017.1
20260503225100 15 289 3.2 9.7 0.00 0.15 0.00 91 1012.5
20260503225003 15 278 3.2 9.7 0.00 0.15 0.00 90 1016.9
20260503224600 15 273 3.2 6.4 0.00 0.15 0.00 91 1012.3
20260503224501 15 264 3.2 6.4 0.00 0.15 0.00 91 1016.8
20260503224100 15 284 1.6 4.8 0.00 0.15 0.00 91 1012.2
20260503223601 15 292 0.0 3.2 0.00 0.15 0.00 90 1012.1
20260503223501 15 318 0.0 1.6 0.00 0.15 0.00 90 1016.6
20260503223101 15 73 0.0 0.0 0.00 0.15 0.00 91 1012.0
20260503223003 15 73 0.0 0.0 0.00 0.15 0.00 91 1016.5
20260503222600 15 73 0.0 1.6 0.00 0.15 0.00 91 1012.0
20260503222501 15 73 0.0 1.6 0.00 0.15 0.00 91 1016.5
20260503222101 15 74 0.0 1.6 0.00 0.15 0.00 91 1012.1
20260503222003 15 74 0.0 1.6 0.00 0.15 0.00 90 1016.6
20260503221601 15 92 0.0 1.6 0.00 0.15 0.00 91 1012.2
20260503221501 15 93 0.0 1.6 0.00 0.15 0.00 91 1016.7
20260503221103 15 93 0.0 1.6 0.00 0.15 0.00 91 1012.2
20260503221002 15 93 0.0 1.6 0.00 0.15 0.00 91 1016.7
20260503220600 15 139 0.0 1.6 0.00 0.15 0.00 90 1012.2
20260503220501 15 137 0.0 1.6 0.00 0.15 0.00 90 1016.7
20260503220103 15 108 0.0 0.0 0.00 0.15 0.00 91 1012.2
20260503220004 15 108 0.0 0.0 0.00 0.15 0.00 91 1012.2
20260503215600 15 108 0.0 1.6 0.00 0.15 0.15 91 1012.2
20260503215501 15 109 0.0 1.6 0.00 0.15 0.15 91 1016.7
20260503215100 15 107 0.0 3.2 0.00 0.15 0.15 91 1012.2
20260503214609 15 113 0.0 3.2 0.00 0.15 0.15 91 1012.1
20260503214501 15 104 0.0 1.6 0.00 0.15 0.15 91 1016.7
20260503214100 15 181 0.0 3.2 0.00 0.15 0.15 91 1012.2
20260503214004 15 181 1.6 3.2 0.00 0.15 0.15 91 1016.7
20260503213600 15 107 0.0 3.2 0.00 0.15 0.15 91 1012.2
20260503213103 16 108 0.0 3.2 0.00 0.15 0.15 91 1012.2
20260503213002 16 108 0.0 3.2 0.00 0.15 0.15 91 1016.8
20260503212600 16 169 0.0 3.2 0.00 0.15 0.15 90 1012.1
20260503212103 16 136 1.6 3.2 0.00 0.15 0.15 90 1012.0
20260503211606 16 86 0.0 3.2 0.00 0.15 0.15 91 1012.1
20260503211503 16 124 1.6 3.2 0.00 0.15 0.15 90 1016.6
20260503211100 16 77 0.0 3.2 0.00 0.15 0.15 90 1012.1
20260503211002 16 88 0.0 3.2 0.00 0.15 0.15 90 1016.6
20260503210600 16 69 0.0 1.6 0.00 0.15 0.15 90 1012.1
20260503210501 16 84 0.0 1.6 0.00 0.15 0.15 90 1016.6
20260503210100 16 93 0.0 1.6 0.00 0.15 0.15 90 1012.1
20260503210006 16 90 1.6 1.6 0.00 0.15 0.15 90 1016.6
20260503210004 16 90 0.0 1.6 0.00 0.15 0.15 90 1012.1
20260503205600 16 78 0.0 1.6 0.00 0.15 0.15 90 1012.2
20260503205502 16 77 0.0 1.6 0.00 0.15 0.15 90 1016.7
20260503205101 16 125 0.0 1.6 0.00 0.15 0.15 90 1012.3
20260503205002 16 125 0.0 1.6 0.00 0.15 0.15 90 1016.8
20260503204502 16 125 0.0 1.6 0.03 0.15 0.15 90 1016.8
20260503204100 16 285 0.0 3.2 0.03 0.15 0.15 90 1012.3
20260503204002 16 285 0.0 3.2 0.03 0.15 0.15 90 1016.8
20260503203600 16 284 0.0 4.8 0.03 0.15 0.15 90 1012.3
20260503203502 16 283 1.6 4.8 0.03 0.15 0.15 90 1016.8
20260503203106 16 278 0.0 4.8 0.05 0.15 0.15 90 1012.2
20260503203002 16 278 1.6 4.8 0.05 0.15 0.15 90 1016.8
20260503202601 16 297 0.0 3.2 0.05 0.15 0.15 90 1012.3
20260503202501 16 311 1.6 3.2 0.05 0.15 0.15 90 1016.7
20260503202100 16 245 0.0 3.2 0.05 0.15 0.15 90 1012.3
20260503202003 16 244 0.0 3.2 0.05 0.15 0.15 90 1016.8
20260503201601 16 300 0.0 3.2 0.05 0.15 0.15 90 1012.2
20260503201501 16 301 0.0 3.2 0.05 0.15 0.15 90 1016.7
20260503201103 16 344 0.0 4.8 0.05 0.15 0.15 90 1012.0
20260503201003 16 344 1.6 4.8 0.05 0.15 0.15 90 1016.5
20260503200600 16 257 1.6 4.8 0.05 0.15 0.15 90 1012.0
20260503200100 16 295 1.6 4.8 0.05 0.15 0.15 90 1012.0
20260503200005 16 293 1.6 4.8 0.08 0.15 0.15 90 1016.5
20260503200003 16 293 1.6 4.8 0.08 0.15 0.15 90 1012.0
20260503195601 16 335 0.0 1.6 0.08 0.18 0.15 90 1011.9
20260503195100 16 336 0.0 0.0 0.10 0.18 0.15 90 1011.8
20260503195001 16 336 0.0 1.6 0.10 0.18 0.15 90 1016.4
20260503194601 16 271 0.0 1.6 0.08 0.15 0.15 90 1011.9
20260503194501 16 271 0.0 1.6 0.08 0.15 0.15 90 1016.4
20260503194100 16 271 0.0 3.2 0.08 0.15 0.15 90 1011.8
20260503193600 16 280 0.0 3.2 0.08 0.15 0.15 89 1011.8
20260503193101 16 271 0.0 6.4 0.05 0.15 0.13 89 1011.8
20260503193001 16 293 3.2 6.4 0.05 0.15 0.13 89 1016.2
20260503192600 16 297 3.2 9.7 0.05 0.15 0.13 89 1011.7
20260503192501 16 283 4.8 9.7 0.05 0.15 0.13 89 1016.3
20260503192100 16 276 3.2 9.7 0.05 0.15 0.13 88 1011.7
20260503192001 16 305 4.8 9.7 0.05 0.15 0.13 88 1016.2
20260503191601 16 287 3.2 11.3 0.05 0.15 0.13 88 1011.7
20260503191501 16 289 3.2 11.3 0.05 0.15 0.13 88 1016.1
20260503191101 16 212 3.2 11.3 0.05 0.15 0.13 87 1011.5
20260503191001 16 296 3.2 11.3 0.05 0.15 0.13 87 1016.0
20260503190605 16 257 1.6 6.4 0.05 0.13 0.10 86 1011.5
20260503190501 17 252 1.6 6.4 0.05 0.13 0.10 86 1016.0
20260503190101 17 236 1.6 8.0 0.03 0.10 0.08 86 1011.4
20260503190005 17 286 1.6 8.0 0.03 0.10 0.08 85 1015.9
20260503185601 17 188 1.6 8.0 0.05 0.13 0.08 85 1011.4
20260503185503 17 273 1.6 8.0 0.03 0.10 0.05 85 1015.9
20260503185100 17 262 1.6 4.8 0.03 0.10 0.05 85 1011.2
20260503185001 17 285 0.0 4.8 0.03 0.10 0.05 85 1015.7
20260503184609 17 214 0.0 1.6 0.03 0.10 0.05 85 1011.0
20260503184501 17 214 0.0 1.6 0.03 0.10 0.05 85 1015.5
20260503184100 17 214 0.0 3.2 0.03 0.10 0.05 84 1011.0
20260503184001 17 214 0.0 3.2 0.03 0.10 0.05 84 1015.5
20260503183600 17 70 0.0 3.2 0.03 0.10 0.05 84 1010.9
20260503183503 17 70 0.0 3.2 0.03 0.10 0.05 85 1015.4
20260503183103 17 66 0.0 3.2 0.03 0.10 0.05 85 1010.8
20260503183001 17 32 0.0 3.2 0.03 0.10 0.05 85 1015.3
20260503182603 17 322 0.0 3.2 0.03 0.10 0.05 84 1010.8
20260503182501 17 322 0.0 3.2 0.03 0.10 0.05 84 1015.3
20260503182100 17 346 0.0 8.0 0.03 0.10 0.05 84 1010.8
20260503182002 17 346 1.6 8.0 0.03 0.10 0.05 84 1015.3
20260503181603 17 14 0.0 8.0 0.03 0.10 0.05 83 1010.7
20260503181100 17 43 0.0 9.7 0.03 0.10 0.05 82 1010.8
20260503181001 17 75 3.2 9.7 0.03 0.10 0.05 81 1015.3
20260503180601 17 108 3.2 9.7 0.03 0.10 0.05 81 1010.6
20260503180504 17 68 4.8 9.7 0.03 0.10 0.05 81 1015.2
20260503180501 17 68 4.8 9.7 0.03 0.10 0.05 81 1010.6
20260503180005 18 83 4.8 8.0 0.00 0.08 0.05 80 1015.1
20260503180003 18 83 3.2 8.0 0.00 0.08 0.05 80 1010.6
20260503175600 18 86 3.2 8.0 0.00 0.08 0.05 79 1010.6
20260503175501 18 89 3.2 8.0 0.00 0.08 0.05 78 1015.1
20260503175100 18 68 3.2 8.0 0.00 0.08 0.05 78 1010.5
20260503175001 18 94 3.2 8.0 0.00 0.08 0.05 78 1015.0
20260503174620 18 167 1.6 6.4 0.00 0.08 0.05 78 1010.4
20260503174501 18 85 1.6 6.4 0.00 0.08 0.05 78 1014.9
20260503174100 18 64 1.6 3.2 0.00 0.08 0.05 78 1010.2
20260503174003 18 108 1.6 3.2 0.00 0.08 0.05 78 1014.7
20260503173600 18 92 1.6 3.2 0.00 0.08 0.05 77 1010.3
20260503173501 18 49 1.6 3.2 0.00 0.08 0.05 77 1014.8
20260503173107 18 78 0.0 3.2 0.00 0.08 0.05 77 1010.3
20260503173001 18 71 0.0 3.2 0.00 0.08 0.05 76 1014.8
20260503172601 18 76 0.0 1.6 0.00 0.08 0.05 77 1010.4
20260503172501 18 76 0.0 1.6 0.00 0.08 0.05 77 1014.9
20260503172100 18 72 0.0 3.2 0.00 0.08 0.05 76 1010.3
20260503172003 18 74 0.0 3.2 0.00 0.08 0.05 76 1014.9
20260503171604 18 70 1.6 6.4 0.00 0.08 0.05 75 1010.3
20260503171501 18 65 1.6 6.4 0.00 0.08 0.05 76 1014.9
20260503171103 18 60 1.6 6.4 0.00 0.08 0.05 76 1010.4
20260503171001 18 103 1.6 6.4 0.00 0.08 0.05 75 1014.9
20260503170600 18 75 1.6 4.8 0.00 0.08 0.05 75 1010.4
20260503160115 18 60 6.4 14.5 0.00 0.18 0.05 73 1010.5
20260503151001 17 76 6.4 14.5 0.00 0.18 0.05 77 1016.0
20260503150600 16 68 3.2 8.0 0.00 0.18 0.05 78 1011.6
20260503150105 16 63 4.8 8.0 0.00 0.18 0.05 77 1011.8
20260503140109 16 319 0.0 9.7 0.05 0.18 0.05 84 1012.8
20260503131100 17 58 9.7 30.6 0.00 0.15 0.00 78 1013.3
20260503131003 17 295 12.9 30.6 0.00 0.15 0.00 78 1017.7
20260503130600 17 269 9.7 30.6 0.00 0.15 0.00 74 1013.1
20260503130501 18 286 9.7 30.6 0.00 0.15 0.00 72 1017.6
20260503110600 21 114 6.4 11.3 0.00 0.23 0.00 60 1012.8
20260503110501 21 150 3.2 12.9 0.00 0.23 0.00 60 1012.7
20260503100130 20 304 0.0 6.4 0.00 0.23 0.00 75 1013.1
20260503090501 17 333 3.2 8.0 0.00 0.23 0.00 83 1018.0
20260503081608 17 84 0.0 4.8 0.00 0.23 0.00 84 1013.4
20260503081503 17 75 1.6 4.8 0.00 0.23 0.00 85 1018.0
20260503081100 17 68 0.0 3.2 0.00 0.23 0.00 85 1013.4
20260503081001 17 74 0.0 3.2 0.00 0.23 0.00 85 1018.0
20260503080601 17 75 0.0 1.6 0.00 0.23 0.00 87 1013.5
20260503080501 17 72 0.0 1.6 0.00 0.23 0.00 87 1018.1
20260503072600 16 287 0.0 1.6 0.00 0.23 0.00 90 1013.6
20260503072501 16 287 0.0 3.2 0.00 0.23 0.00 90 1018.1
20260503072100 16 288 0.0 3.2 0.00 0.23 0.00 90 1013.5
20260503072001 16 288 0.0 3.2 0.00 0.23 0.00 90 1018.0
20260503071600 16 285 0.0 3.2 0.00 0.23 0.00 90 1013.6
20260503071503 16 284 0.0 3.2 0.00 0.23 0.00 90 1018.1
20260503071101 16 355 0.0 1.6 0.00 0.23 0.00 90 1013.7
20260503071001 16 349 0.0 1.6 0.00 0.23 0.00 90 1018.2
20260503070601 16 349 0.0 1.6 0.00 0.23 0.00 90 1013.7
20260503070501 16 349 0.0 1.6 0.00 0.23 0.00 90 1018.2
20260503070103 16 65 0.0 3.2 0.00 0.23 0.00 90 1013.6
20260503055100 14 79 0.0 3.2 0.00 0.23 0.00 92 1013.3
20260503055001 14 87 1.6 3.2 0.00 0.23 0.00 92 1017.9
20260503054600 14 79 0.0 1.6 0.00 0.23 0.00 92 1013.3
20260503054100 14 77 0.0 1.6 0.00 0.23 0.00 92 1013.2
20260503053600 14 125 0.0 1.6 0.00 0.23 0.00 92 1013.2
20260503053503 14 146 0.0 1.6 0.00 0.23 0.00 92 1017.7
20260503053100 14 140 0.0 1.6 0.00 0.23 0.00 92 1013.2
20260503053004 14 140 0.0 1.6 0.00 0.23 0.00 92 1017.8
20260503052600 14 163 0.0 1.6 0.00 0.23 0.00 92 1013.3
20260503052501 14 163 0.0 1.6 0.00 0.23 0.00 92 1017.8
20260503052059 14 77 0.0 1.6 0.00 0.23 0.00 92 1013.2
20260503052001 14 77 0.0 1.6 0.00 0.23 0.00 92 1017.7
20260503051600 14 69 0.0 1.6 0.00 0.23 0.00 92 1013.2
20260503051501 14 69 0.0 1.6 0.00 0.23 0.00 92 1017.7
20260503051100 15 68 0.0 3.2 0.00 0.23 0.00 92 1013.1
20260503051002 15 68 0.0 3.2 0.00 0.23 0.00 92 1017.6
20260503050600 15 68 0.0 3.2 0.00 0.23 0.00 92 1013.1
20260503050005 15 131 0.0 3.2 0.00 0.23 0.00 92 1017.6
20260503050002 15 131 0.0 3.2 0.00 0.23 0.00 92 1013.0
20260503045603 15 243 0.0 3.2 0.00 0.23 0.00 92 1013.1
20260503045100 15 79 0.0 3.2 0.00 0.23 0.00 92 1013.1
20260503044600 15 77 0.0 1.6 0.00 0.23 0.00 92 1013.1
20260503044501 15 251 0.0 0.0 0.00 0.23 0.00 92 1017.7
20260503044103 15 251 0.0 0.0 0.00 0.23 0.00 92 1013.1
20260503044001 15 251 0.0 0.0 0.00 0.23 0.00 92 1017.6
20260503043600 15 251 0.0 0.0 0.00 0.23 0.00 92 1013.1
20260503043501 15 251 0.0 0.0 0.00 0.23 0.00 92 1017.6
20260503043117 15 252 0.0 1.6 0.00 0.23 0.00 92 1013.1
20260503043003 15 252 0.0 1.6 0.00 0.23 0.00 92 1017.6
20260503042600 15 250 0.0 1.6 0.00 0.23 0.00 92 1013.2
20260503042501 15 250 0.0 3.2 0.00 0.23 0.00 92 1017.8
20260503042100 15 232 0.0 3.2 0.00 0.23 0.00 92 1013.3
20260503042001 15 266 1.6 3.2 0.00 0.23 0.00 92 1017.8
20260503041600 15 261 0.0 3.2 0.00 0.23 0.00 92 1013.2
20260503041100 15 278 0.0 4.8 0.00 0.23 0.00 92 1013.3
20260503041003 15 288 1.6 4.8 0.00 0.23 0.00 92 1017.8
20260503040600 15 261 0.0 4.8 0.00 0.23 0.00 92 1013.3
20260503040501 15 275 1.6 4.8 0.00 0.23 0.00 92 1017.8
20260503040105 15 288 0.0 4.8 0.00 0.23 0.00 92 1013.2
20260503040004 15 288 0.0 3.2 0.00 0.23 0.00 92 1013.2
20260503035600 15 288 0.0 3.2 0.00 0.23 0.00 92 1013.2
20260503035501 15 297 1.6 3.2 0.00 0.23 0.00 92 1017.7
20260503035100 15 311 0.0 6.4 0.00 0.23 0.00 92 1013.2
20260503035001 15 306 1.6 6.4 0.00 0.23 0.00 92 1017.8
20260503034612 15 327 1.6 9.7 0.00 0.23 0.00 92 1013.2
20260503034501 15 324 3.2 9.7 0.00 0.23 0.00 92 1017.7
20260503034101 15 285 1.6 9.7 0.00 0.23 0.00 92 1013.2
20260503034002 15 307 1.6 9.7 0.00 0.23 0.00 92 1017.7
20260503033559 15 333 1.6 4.8 0.00 0.23 0.00 92 1013.2
20260503033501 15 319 1.6 4.8 0.00 0.23 0.00 92 1017.8
20260503033100 15 333 0.0 4.8 0.00 0.23 0.00 92 1013.2
20260503032601 15 327 1.6 4.8 0.00 0.23 0.00 92 1013.1
20260503032104 15 347 0.0 3.2 0.00 0.23 0.00 92 1013.2
20260503032004 15 328 0.0 3.2 0.00 0.23 0.00 92 1017.7
20260503031600 15 324 0.0 3.2 0.00 0.23 0.00 92 1013.2
20260503031501 15 325 0.0 3.2 0.00 0.23 0.00 92 1017.8
20260503031100 15 322 0.0 3.2 0.00 0.23 0.00 92 1013.3
20260503031001 15 300 0.0 3.2 0.00 0.23 0.00 92 1017.8
20260503030600 15 289 0.0 3.2 0.00 0.23 0.00 92 1013.3
20260503030501 15 307 1.6 3.2 0.00 0.23 0.00 92 1017.9
20260503030100 15 302 0.0 4.8 0.00 0.23 0.00 92 1013.4
20260503030006 15 300 1.6 4.8 0.00 0.23 0.00 92 1017.9
20260503030004 15 300 1.6 4.8 0.00 0.23 0.00 92 1013.4
20260503025600 15 295 1.6 6.4 0.00 0.23 0.00 92 1013.5
20260503025501 15 297 3.2 6.4 0.00 0.23 0.00 92 1018.0
20260503025100 15 284 1.6 6.4 0.00 0.23 0.00 92 1013.5
20260503024600 15 281 1.6 4.8 0.00 0.23 0.00 92 1013.5
20260503024502 15 269 1.6 4.8 0.00 0.23 0.00 92 1018.1
20260503024103 15 286 0.0 4.8 0.00 0.23 0.00 92 1013.4
20260503024001 15 281 1.6 4.8 0.00 0.23 0.00 92 1018.0
20260503023559 15 282 1.6 4.8 0.00 0.23 0.00 92 1013.5
20260503023501 15 301 1.6 4.8 0.00 0.23 0.00 92 1018.0
20260503023100 15 330 0.0 3.2 0.00 0.23 0.00 92 1013.4
20260503023002 15 333 1.6 3.2 0.00 0.23 0.00 92 1018.0
20260503022601 15 355 0.0 3.2 0.00 0.23 0.00 92 1013.4
20260503022501 15 318 1.6 3.2 0.00 0.23 0.00 92 1018.0
20260503022100 15 278 0.0 3.2 0.00 0.23 0.00 92 1013.5
20260503022003 15 277 1.6 3.2 0.00 0.23 0.00 92 1018.0
20260503021600 15 347 0.0 4.8 0.00 0.23 0.00 91 1013.6
20260503021100 15 277 0.0 4.8 0.00 0.23 0.00 92 1013.6
20260503021001 15 327 1.6 4.8 0.00 0.23 0.00 92 1018.2
20260503020600 15 339 0.0 4.8 0.00 0.23 0.00 92 1013.6
20260503020100 15 326 1.6 4.8 0.00 0.23 0.00 91 1013.5
20260503020007 15 307 1.6 4.8 0.00 0.23 0.00 91 1018.1
20260503020003 15 307 1.6 4.8 0.00 0.23 0.00 91 1013.5
20260503015502 15 319 1.6 6.4 0.00 0.23 0.00 91 1013.6
20260503015002 15 322 3.2 6.4 0.00 0.23 0.00 91 1018.2
20260503014503 15 325 1.6 6.4 0.00 0.23 0.00 91 1013.7
20260503014004 15 337 3.2 8.0 0.00 0.23 0.00 91 1018.3
20260503014001 15 337 1.6 8.0 0.00 0.23 0.00 91 1013.7
20260503013501 15 328 3.2 8.0 0.00 0.23 0.00 91 1013.7
20260503013002 15 333 3.2 6.4 0.00 0.23 0.00 91 1018.2
20260503012503 15 354 1.6 4.8 0.00 0.23 0.00 91 1013.7
20260503012004 15 312 1.6 8.0 0.00 0.23 0.00 91 1018.4
20260503012002 15 312 1.6 8.0 0.00 0.23 0.00 91 1013.9
20260503011502 15 321 1.6 8.0 0.00 0.23 0.00 91 1013.9
20260503011002 15 329 3.2 8.0 0.00 0.23 0.00 91 1018.4
20260503010502 15 307 1.6 6.4 0.00 0.23 0.00 91 1013.9
20260503010005 15 306 3.2 8.0 0.00 0.23 0.00 90 1018.4
20260503005600 15 322 3.2 8.0 0.00 0.23 0.00 90 1014.0
20260503005501 15 327 3.2 8.0 0.00 0.23 0.00 90 1018.5
20260503005100 15 323 1.6 6.4 0.00 0.23 0.00 90 1014.0
20260503005003 15 353 1.6 6.4 0.00 0.23 0.00 90 1018.5
20260503004601 15 301 1.6 6.4 0.00 0.23 0.00 90 1014.0
20260503004501 15 342 1.6 6.4 0.00 0.23 0.00 90 1018.5
20260503004100 15 311 1.6 6.4 0.00 0.23 0.00 90 1014.0
20260503003600 16 294 1.6 9.7 0.00 0.23 0.00 90 1014.1
20260503003501 15 290 3.2 9.7 0.00 0.23 0.00 89 1018.6
20260503003107 16 326 3.2 9.7 0.00 0.23 0.00 89 1014.0
20260503003004 16 292 3.2 9.7 0.00 0.23 0.00 89 1018.5
20260503002600 16 316 1.6 9.7 0.00 0.23 0.00 89 1014.2
20260503002501 16 351 3.2 9.7 0.00 0.23 0.00 89 1018.6
20260503002100 16 360 1.6 9.7 0.00 0.23 0.00 89 1014.1
20260503001613 16 13 3.2 9.7 0.00 0.23 0.00 89 1014.2
20260503001501 16 359 3.2 9.7 0.00 0.23 0.00 89 1018.8
20260503001100 16 293 1.6 8.0 0.00 0.23 0.00 88 1014.2
20260503001003 16 339 3.2 8.0 0.00 0.23 0.00 88 1018.8